Location: Blangy-Tronville
(49.8790°N, 2.4226°E)
Time: 01:32:13
(UTC+00:00)

CBERS-1 - Pass Details

Date: 18 November 2025
Orbit: 765 x 772 km, 98.8° (Epoch: 04 December)

Event Time Altitude Azimuth Distance (km) Brightness Sun altitude
Rises 16:27:08 0° 159° (SSE) 3,233 7.3 -4.3°
Reaches altitude 10° 16:29:26 10° 158° (SSE) 2,311 6.5 -4.6°
Maximum altitude 16:34:31 80° 73° (ENE) 790 4.0 -5.4°
Drops below altitude 10° 16:39:40 10° 347° (NNW) 2,330 6.4 -6.1°
Sets 16:41:59 0° 346° (NNW) 3,261 7.2 -6.5°
